Back to Top

Language: 

My Weather Underground Personal Weather Station Historical Data with Graphs...

Delerius Weather Station Historical Data
Daily Summary for July 15, 2017 Units:  English    Metric   Both
« Previous Day
Next Day »
Daily Weekly Monthly Yearly Custom
  High: Low: Average:
Temperature: 72.0 °F 55.8 °F 62.9 °F
Dew Point: 64.9 °F 51.4 °F 58.4 °F
Humidity: 95 % 77 % 85 %
Wind Speed: 13.0 mph 0.0 mph 5.5 mph
Wind Gust: 24.0 mph - -
Wind:- - SW
Pressure: 30.13 in 30.01 in -
Precipitation: 0.10 in    
Historical Graphs
 
 
Tabular Data for July 15, 2017
Time Temperature Dew Point Pressure Wind Wind Speed Wind Gust Humidity Rainfall Rate (Hourly) solar Conditions
00:03 55.9 °F 51.5 °F 30.13 in West 1.0 mph 5.0 mph 85 % 0.00 in 0 W/m2
00:08 55.9 °F 51.8 °F 30.13 in West 2.0 mph 5.0 mph 86 % 0.00 in 0 W/m2
00:13 55.9 °F 51.8 °F 30.13 in West 2.0 mph 5.0 mph 86 % 0.00 in 0 W/m2
00:18 55.9 °F 51.5 °F 30.13 in West 3.0 mph 6.0 mph 85 % 0.00 in 0 W/m2
00:23 55.9 °F 51.8 °F 30.13 in West 4.0 mph 10.0 mph 86 % 0.00 in 0 W/m2
00:28 55.8 °F 51.6 °F 30.13 in WNW 5.0 mph 10.0 mph 86 % 0.00 in 0 W/m2
00:33 55.9 °F 51.5 °F 30.13 in WNW 5.0 mph 10.0 mph 85 % 0.00 in 0 W/m2
00:38 55.9 °F 51.5 °F 30.13 in WNW 5.0 mph 9.0 mph 85 % 0.00 in 0 W/m2
00:43 55.9 °F 51.5 °F 30.13 in WNW 6.0 mph 9.0 mph 85 % 0.00 in 0 W/m2
00:48 55.9 °F 51.5 °F 30.13 in WNW 5.0 mph 9.0 mph 85 % 0.00 in 0 W/m2
00:53 55.9 °F 51.5 °F 30.13 in WNW 5.0 mph 9.0 mph 85 % 0.00 in 0 W/m2
00:58 56.1 °F 51.7 °F 30.12 in WNW 4.0 mph 8.0 mph 85 % 0.00 in 0 W/m2
01:03 56.1 °F 51.4 °F 30.12 in WNW 3.0 mph 8.0 mph 84 % 0.00 in 0 W/m2
01:08 56.1 °F 51.4 °F 30.12 in West 4.0 mph 8.0 mph 84 % 0.00 in 0 W/m2
01:13 56.1 °F 51.4 °F 30.12 in West 4.0 mph 7.0 mph 84 % 0.00 in 0 W/m2
01:18 56.3 °F 51.5 °F 30.13 in West 4.0 mph 7.0 mph 84 % 0.00 in 0 W/m2
01:23 56.3 °F 51.5 °F 30.13 in West 4.0 mph 7.0 mph 84 % 0.00 in 0 W/m2
01:28 56.3 °F 51.5 °F 30.12 in West 2.0 mph 7.0 mph 84 % 0.00 in 0 W/m2
01:33 56.3 °F 51.5 °F 30.12 in West 1.0 mph 5.0 mph 84 % 0.00 in 0 W/m2
01:38 56.3 °F 51.5 °F 30.12 in West 2.0 mph 6.0 mph 84 % 0.00 in 0 W/m2
01:43 56.3 °F 51.5 °F 30.13 in West 2.0 mph 6.0 mph 84 % 0.00 in 0 W/m2
01:48 56.3 °F 51.8 °F 30.13 in West 1.0 mph 5.0 mph 85 % 0.00 in 0 W/m2
01:53 56.3 °F 51.8 °F 30.12 in West 1.0 mph 5.0 mph 85 % 0.00 in 0 W/m2
01:58 56.3 °F 51.8 °F 30.12 in Calm   4.0 mph 85 % 0.00 in 0 W/m2
02:03 56.1 °F 51.7 °F 30.13 in Calm     85 % 0.00 in 0 W/m2
02:08 56.1 °F 51.7 °F 30.12 in Calm   1.0 mph 85 % 0.00 in 0 W/m2
02:13 56.1 °F 51.7 °F 30.12 in Calm   1.0 mph 85 % 0.00 in 0 W/m2
02:18 56.1 °F 51.7 °F 30.12 in Calm     85 % 0.00 in 0 W/m2
02:23 56.1 °F 51.7 °F 30.12 in Calm   3.0 mph 85 % 0.00 in 0 W/m2
02:28 56.1 °F 51.7 °F 30.12 in Calm   3.0 mph 85 % 0.00 in 0 W/m2
02:33 56.1 °F 51.7 °F 30.12 in Calm   2.0 mph 85 % 0.00 in 0 W/m2
02:38 56.1 °F 51.7 °F 30.12 in Calm   1.0 mph 85 % 0.00 in 0 W/m2
02:43 56.1 °F 51.7 °F 30.11 in Calm   1.0 mph 85 % 0.00 in 0 W/m2
02:48 56.1 °F 51.7 °F 30.11 in Calm     85 % 0.00 in 0 W/m2
02:53 56.1 °F 51.7 °F 30.11 in Calm     85 % 0.00 in 0 W/m2
02:58 56.1 °F 51.7 °F 30.11 in Calm     85 % 0.00 in 0 W/m2
03:03 56.1 °F 51.7 °F 30.11 in Calm     85 % 0.00 in 0 W/m2
03:08 56.1 °F 51.7 °F 30.10 in Calm     85 % 0.00 in 0 W/m2
03:13 56.1 °F 51.7 °F 30.10 in Calm   4.0 mph 85 % 0.00 in 0 W/m2
03:18 56.1 °F 51.7 °F 30.10 in SSE 1.0 mph 5.0 mph 85 % 0.00 in 0 W/m2
03:23 56.1 °F 51.7 °F 30.10 in SSE 1.0 mph 5.0 mph 85 % 0.00 in 0 W/m2
03:29 56.1 °F 51.7 °F 30.10 in SE 1.0 mph 4.0 mph 85 % 0.00 in 0 W/m2
03:34 56.1 °F 51.7 °F 30.10 in Calm   2.0 mph 85 % 0.00 in 0 W/m2
03:39 56.1 °F 51.7 °F 30.10 in Calm   5.0 mph 85 % 0.00 in 0 W/m2
03:44 56.1 °F 51.7 °F 30.10 in South 1.0 mph 5.0 mph 85 % 0.00 in 0 W/m2
03:49 56.1 °F 51.7 °F 30.10 in South 2.0 mph 5.0 mph 85 % 0.00 in 0 W/m2
03:54 56.3 °F 51.8 °F 30.09 in South 2.0 mph 6.0 mph 85 % 0.00 in 0 W/m2
03:59 56.3 °F 51.5 °F 30.10 in South 2.0 mph 6.0 mph 84 % 0.00 in 0 W/m2
04:04 56.5 °F 51.7 °F 30.09 in South 2.0 mph 7.0 mph 84 % 0.00 in 0 W/m2
04:09 56.5 °F 51.7 °F 30.09 in SSW 3.0 mph 7.0 mph 84 % 0.00 in 0 W/m2
04:14 56.5 °F 51.4 °F 30.09 in SSW 3.0 mph 6.0 mph 83 % 0.00 in 0 W/m2
04:19 56.7 °F 51.6 °F 30.09 in SW 1.0 mph 4.0 mph 83 % 0.00 in 0 W/m2
04:24 56.7 °F 51.6 °F 30.09 in SSW 2.0 mph 6.0 mph 83 % 0.00 in 0 W/m2
04:29 56.5 °F 51.4 °F 30.09 in South 3.0 mph 7.0 mph 83 % 0.00 in 0 W/m2
04:34 56.5 °F 51.7 °F 30.09 in SSE 4.0 mph 7.0 mph 84 % 0.00 in 0 W/m2
04:39 56.5 °F 51.7 °F 30.09 in South 4.0 mph 7.0 mph 84 % 0.00 in 0 W/m2
04:44 56.5 °F 51.7 °F 30.09 in South 4.0 mph 6.0 mph 84 % 0.00 in 0 W/m2
04:49 56.5 °F 51.7 °F 30.08 in South 4.0 mph 6.0 mph 84 % 0.00 in 0 W/m2
04:54 56.5 °F 51.7 °F 30.08 in South 3.0 mph 6.0 mph 84 % 0.00 in 0 W/m2
04:59 56.5 °F 51.7 °F 30.09 in SSW 3.0 mph 7.0 mph 84 % 0.00 in 0 W/m2
05:04 56.7 °F 52.2 °F 30.09 in SSW 3.0 mph 7.0 mph 85 % 0.00 in 5 W/m2
05:09 56.7 °F 51.9 °F 30.08 in SSW 2.0 mph 6.0 mph 84 % 0.00 in 5 W/m2
05:14 56.7 °F 52.2 °F 30.08 in SSW 1.0 mph 5.0 mph 85 % 0.00 in 5 W/m2
05:19 56.7 °F 52.2 °F 30.09 in Calm   5.0 mph 85 % 0.00 in 5 W/m2
05:24 56.7 °F 52.2 °F 30.08 in Calm   4.0 mph 85 % 0.00 in 7 W/m2
05:29 56.7 °F 52.2 °F 30.08 in Calm   1.0 mph 85 % 0.00 in 9 W/m2
05:34 56.7 °F 52.2 °F 30.08 in Calm   2.0 mph 85 % 0.00 in 12 W/m2
05:39 56.7 °F 52.2 °F 30.08 in Calm   2.0 mph 85 % 0.00 in 12 W/m2
05:44 56.7 °F 52.5 °F 30.08 in Calm   1.0 mph 86 % 0.00 in 11 W/m2
05:49 56.7 °F 52.5 °F 30.08 in Calm   5.0 mph 86 % 0.00 in 14 W/m2
05:54 56.7 °F 52.5 °F 30.08 in SSW 2.0 mph 7.0 mph 86 % 0.00 in 19 W/m2
05:59 56.7 °F 52.5 °F 30.08 in SSW 3.0 mph 7.0 mph 86 % 0.00 in 32 W/m2
06:04 56.8 °F 52.7 °F 30.08 in SSW 3.0 mph 6.0 mph 86 % 0.00 in 49 W/m2
06:09 56.8 °F 52.7 °F 30.08 in SSW 3.0 mph 6.0 mph 86 % 0.00 in 40 W/m2
06:14 57.0 °F 52.9 °F 30.08 in SSW 1.0 mph 6.0 mph 86 % 0.00 in 39 W/m2
06:19 57.2 °F 53.0 °F 30.08 in SSW 1.0 mph 5.0 mph 86 % 0.00 in 60 W/m2
06:24 57.4 °F 53.2 °F 30.07 in SSW 1.0 mph 5.0 mph 86 % 0.00 in 47 W/m2
06:26 57.4 °F 53.2 °F 30.08 in SSW 1.0 mph 5.0 mph 86 % 0.00 in 44 W/m2
06:31 57.6 °F 53.4 °F 30.07 in SSW 1.0 mph 5.0 mph 86 % 0.00 in 39 W/m2
06:36 57.6 °F 53.7 °F 30.07 in SSW 1.0 mph 4.0 mph 87 % 0.00 in 40 W/m2
06:41 57.7 °F 53.9 °F 30.08 in SSW 1.0 mph 5.0 mph 87 % 0.00 in 63 W/m2
06:46 57.7 °F 54.2 °F 30.08 in SW 2.0 mph 8.0 mph 88 % 0.00 in 81 W/m2
06:51 57.9 °F 54.1 °F 30.08 in WSW 4.0 mph 8.0 mph 87 % 0.00 in 63 W/m2
06:56 58.1 °F 54.2 °F 30.08 in SW 4.0 mph 7.0 mph 87 % 0.00 in 47 W/m2
07:02 58.3 °F 54.1 °F 30.08 in SW 5.0 mph 9.0 mph 86 % 0.00 in 40 W/m2
07:07 58.3 °F 54.1 °F 30.07 in SSW 6.0 mph 9.0 mph 86 % 0.00 in 39 W/m2
07:12 58.5 °F 54.3 °F 30.07 in SSW 5.0 mph 9.0 mph 86 % 0.00 in 40 W/m2
07:15 58.5 °F 54.3 °F 30.07 in SSW 5.0 mph 9.0 mph 86 % 0.00 in 42 W/m2
07:20 58.5 °F 54.3 °F 30.07 in SSW 4.0 mph 8.0 mph 86 % 0.00 in 44 W/m2
07:25 58.5 °F 54.3 °F 30.07 in SSW 5.0 mph 8.0 mph 86 % 0.00 in 44 W/m2
07:30 58.6 °F 54.5 °F 30.07 in SSW 5.0 mph 8.0 mph 86 % 0.00 in 70 W/m2
07:35 58.6 °F 54.5 °F 30.07 in SSW 5.0 mph 10.0 mph 86 % 0.00 in 76 W/m2
07:40 58.6 °F 54.5 °F 30.07 in SSW 7.0 mph 11.0 mph 86 % 0.00 in 72 W/m2
07:45 58.6 °F 54.5 °F 30.07 in SW 7.0 mph 11.0 mph 86 % 0.00 in 67 W/m2
07:50 58.6 °F 54.5 °F 30.08 in SW 6.0 mph 11.0 mph 86 % 0.00 in 72 W/m2
07:55 58.6 °F 54.5 °F 30.08 in SW 6.0 mph 10.0 mph 86 % 0.00 in 70 W/m2
08:00 58.6 °F 54.8 °F 30.08 in SW 6.0 mph 10.0 mph 87 % 0.00 in 65 W/m2
08:05 58.6 °F 54.8 °F 30.08 in SW 5.0 mph 9.0 mph 87 % 0.00 in 49 W/m2
08:10 58.5 °F 54.9 °F 30.08 in SW 5.0 mph 9.0 mph 88 % 0.01 in 56 W/m2
08:15 58.3 °F 54.7 °F 30.08 in SW 6.0 mph 11.0 mph 88 % 0.02 in 56 W/m2
08:20 58.1 °F 54.9 °F 30.08 in SSW 7.0 mph 11.0 mph 89 % 0.02 in 58 W/m2
08:25 57.9 °F 55.0 °F 30.08 in SW 7.0 mph 11.0 mph 90 % 0.03 in 46 W/m2
08:30 57.7 °F 55.1 °F 30.08 in SW 6.0 mph 11.0 mph 91 % 0.05 in 47 W/m2
08:35 57.6 °F 55.0 °F 30.08 in SW 6.0 mph 10.0 mph 91 % 0.08 in 51 W/m2
08:40 57.4 °F 55.1 °F 30.08 in SW 6.0 mph 10.0 mph 92 % 0.09 in 46 W/m2
08:45 57.2 °F 55.2 °F 30.08 in SSW 5.0 mph 8.0 mph 93 % 0.09 in 37 W/m2
08:46 57.2 °F 55.2 °F 30.08 in SSW 5.0 mph 8.0 mph 93 % 0.09 in 35 W/m2
08:51 57.0 °F 55.0 °F 30.07 in SSW 4.0 mph 8.0 mph 93 % 0.09 in 32 W/m2
08:56 57.0 °F 55.0 °F 30.07 in SSW 3.0 mph 8.0 mph 93 % 0.09 in 44 W/m2
09:01 57.0 °F 55.0 °F 30.07 in South 2.0 mph 6.0 mph 93 % 0.09 in 49 W/m2
09:06 57.0 °F 55.0 °F 30.08 in South 1.0 mph 6.0 mph 93 % 0.09 in 51 W/m2
09:11 57.0 °F 55.3 °F 30.07 in South 1.0 mph 6.0 mph 94 % 0.09 in 53 W/m2
09:16 57.2 °F 55.5 °F 30.07 in SSW 3.0 mph 6.0 mph 94 % 0.08 in 58 W/m2
09:21 57.4 °F 55.7 °F 30.07 in SW 4.0 mph 8.0 mph 94 % 0.06 in 60 W/m2
09:26 57.4 °F 55.7 °F 30.08 in SW 5.0 mph 9.0 mph 94 % 0.06 in 62 W/m2
09:31 57.4 °F 55.7 °F 30.07 in SW 6.0 mph 9.0 mph 94 % 0.03 in 56 W/m2
09:36 57.6 °F 55.8 °F 30.07 in SSW 5.0 mph 11.0 mph 94 % 0.01 in 53 W/m2
09:41 57.6 °F 55.8 °F 30.07 in South 5.0 mph 11.0 mph 94 % 0.00 in 74 W/m2
09:46 57.6 °F 55.8 °F 30.07 in South 6.0 mph 11.0 mph 94 % 0.00 in 65 W/m2
09:51 57.7 °F 56.0 °F 30.07 in South 5.0 mph 11.0 mph 94 % 0.00 in 98 W/m2
09:56 57.7 °F 55.7 °F 30.08 in South 6.0 mph 11.0 mph 93 % 0.00 in 83 W/m2
10:01 57.9 °F 56.2 °F 30.08 in SSE 6.0 mph 10.0 mph 94 % 0.00 in 53 W/m2
10:06 57.9 °F 56.2 °F 30.08 in SSE 4.0 mph 7.0 mph 94 % 0.01 in 51 W/m2
10:11 57.9 °F 56.2 °F 30.08 in SSE 4.0 mph 9.0 mph 94 % 0.01 in 105 W/m2
10:15 58.1 °F 56.4 °F 30.07 in SSE 5.0 mph 9.0 mph 94 % 0.01 in 160 W/m2
10:20 58.3 °F 56.6 °F 30.07 in SSE 5.0 mph 9.0 mph 94 % 0.01 in 105 W/m2
10:25 58.5 °F 57.0 °F 30.07 in South 4.0 mph 8.0 mph 95 % 0.01 in 142 W/m2
10:30 58.6 °F 57.2 °F 30.06 in South 3.0 mph 8.0 mph 95 % 0.01 in 149 W/m2
10:35 58.8 °F 57.4 °F 30.06 in South 4.0 mph 9.0 mph 95 % 0.01 in 146 W/m2
10:40 59.2 °F 57.7 °F 30.06 in SSW 5.0 mph 10.0 mph 95 % 0.01 in 171 W/m2
10:45 59.5 °F 58.1 °F 30.07 in SSW 4.0 mph 10.0 mph 95 % 0.01 in 127 W/m2
10:50 59.7 °F 58.3 °F 30.06 in SSW 3.0 mph 9.0 mph 95 % 0.01 in 167 W/m2
10:55 59.9 °F 58.5 °F 30.06 in SSW 4.0 mph 8.0 mph 95 % 0.01 in 230 W/m2
11:00 60.3 °F 58.8 °F 30.07 in SSW 4.0 mph 8.0 mph 95 % 0.01 in 186 W/m2
11:05 60.4 °F 59.0 °F 30.06 in SSW 5.0 mph 8.0 mph 95 % 0.00 in 244 W/m2
11:10 60.8 °F 59.1 °F 30.07 in SSW 6.0 mph 9.0 mph 94 % 0.00 in 244 W/m2
11:15 61.0 °F 59.2 °F 30.06 in SSW 6.0 mph 11.0 mph 94 % 0.00 in 246 W/m2
11:20 61.2 °F 59.4 °F 30.06 in SSW 6.0 mph 11.0 mph 94 % 0.00 in 148 W/m2
11:25 61.2 °F 59.1 °F 30.06 in SSW 5.0 mph 10.0 mph 93 % 0.00 in 118 W/m2
11:30 61.3 °F 59.3 °F 30.06 in SSW 5.0 mph 8.0 mph 93 % 0.00 in 123 W/m2
11:35 61.3 °F 59.3 °F 30.06 in SSW 6.0 mph 9.0 mph 93 % 0.00 in 132 W/m2
11:40 61.3 °F 59.3 °F 30.06 in SSW 6.0 mph 10.0 mph 93 % 0.00 in 132 W/m2
11:45 61.3 °F 59.3 °F 30.06 in SSW 5.0 mph 10.0 mph 93 % 0.00 in 155 W/m2
11:50 61.5 °F 59.5 °F 30.06 in SSW 4.0 mph 8.0 mph 93 % 0.00 in 146 W/m2
11:55 61.7 °F 59.7 °F 30.06 in SSW 3.0 mph 7.0 mph 93 % 0.00 in 204 W/m2
12:00 61.9 °F 59.8 °F 30.06 in SSW 4.0 mph 9.0 mph 93 % 0.00 in 223 W/m2
12:05 62.1 °F 60.0 °F 30.06 in SW 7.0 mph 12.0 mph 93 % 0.00 in 264 W/m2
12:10 62.1 °F 59.7 °F 30.05 in SW 8.0 mph 12.0 mph 92 % 0.00 in 229 W/m2
12:15 62.4 °F 60.1 °F 30.05 in SW 7.0 mph 11.0 mph 92 % 0.00 in 281 W/m2
12:20 62.8 °F 60.4 °F 30.05 in SW 6.0 mph 10.0 mph 92 % 0.00 in 257 W/m2
12:25 63.0 °F 60.6 °F 30.05 in SSW 6.0 mph 10.0 mph 92 % 0.00 in 299 W/m2
12:30 63.1 °F 60.8 °F 30.05 in SSW 5.0 mph 9.0 mph 92 % 0.00 in 279 W/m2
12:35 63.3 °F 60.6 °F 30.05 in SSW 4.0 mph 8.0 mph 91 % 0.00 in 241 W/m2
12:40 63.5 °F 60.8 °F 30.05 in SSW 5.0 mph 8.0 mph 91 % 0.00 in 255 W/m2
12:45 63.7 °F 61.0 °F 30.05 in SSW 5.0 mph 8.0 mph 91 % 0.00 in 257 W/m2
12:50 63.9 °F 60.9 °F 30.05 in SSW 4.0 mph 8.0 mph 90 % 0.00 in 220 W/m2
12:55 64.0 °F 61.0 °F 30.05 in SSW 4.0 mph 8.0 mph 90 % 0.00 in 283 W/m2
13:00 64.2 °F 61.2 °F 30.04 in SSW 4.0 mph 7.0 mph 90 % 0.00 in 338 W/m2
13:05 64.6 °F 61.6 °F 30.04 in SSW 3.0 mph 7.0 mph 90 % 0.00 in 346 W/m2
13:10 64.9 °F 61.6 °F 30.04 in South 3.0 mph 7.0 mph 89 % 0.00 in 299 W/m2
13:16 65.3 °F 62.0 °F 30.04 in South 2.0 mph 7.0 mph 89 % 0.00 in 279 W/m2
13:21 65.5 °F 61.8 °F 30.04 in SSW 1.0 mph 6.0 mph 88 % 0.00 in 250 W/m2
13:26 65.8 °F 62.2 °F 30.04 in Calm   5.0 mph 88 % 0.00 in 299 W/m2
13:31 66.4 °F 62.4 °F 30.04 in SW 3.0 mph 12.0 mph 87 % 0.00 in 401 W/m2
13:36 66.9 °F 62.6 °F 30.04 in WSW 5.0 mph 12.0 mph 86 % 0.00 in 279 W/m2
13:41 67.3 °F 62.6 °F 30.04 in WSW 6.0 mph 10.0 mph 85 % 0.00 in 250 W/m2
13:46 67.5 °F 62.5 °F 30.04 in SW 6.0 mph 12.0 mph 84 % 0.00 in 195 W/m2
13:51 67.6 °F 62.6 °F 30.04 in SW 6.0 mph 12.0 mph 84 % 0.00 in 199 W/m2
13:56 67.6 °F 62.6 °F 30.04 in SW 5.0 mph 9.0 mph 84 % 0.00 in 160 W/m2
14:01 67.8 °F 62.8 °F 30.04 in SW 5.0 mph 11.0 mph 84 % 0.00 in 278 W/m2
14:06 68.2 °F 63.5 °F 30.04 in SW 6.0 mph 12.0 mph 85 % 0.00 in 341 W/m2
14:11 68.5 °F 63.5 °F 30.03 in WSW 7.0 mph 13.0 mph 84 % 0.00 in 526 W/m2
14:16 69.1 °F 63.4 °F 30.04 in WSW 8.0 mph 13.0 mph 82 % 0.00 in 311 W/m2
14:21 69.3 °F 63.5 °F 30.04 in WSW 8.0 mph 13.0 mph 82 % 0.00 in 199 W/m2
14:26 69.3 °F 63.2 °F 30.03 in WSW 8.0 mph 13.0 mph 81 % 0.00 in 221 W/m2
14:31 69.1 °F 63.0 °F 30.04 in WSW 8.0 mph 15.0 mph 81 % 0.00 in 255 W/m2
14:36 69.1 °F 63.4 °F 30.03 in WSW 7.0 mph 15.0 mph 82 % 0.00 in 325 W/m2
14:41 69.3 °F 63.2 °F 30.03 in West 8.0 mph 18.0 mph 81 % 0.00 in 155 W/m2
14:46 69.3 °F 63.2 °F 30.03 in West 9.0 mph 18.0 mph 81 % 0.00 in 149 W/m2
14:51 69.1 °F 63.0 °F 30.03 in West 9.0 mph 16.0 mph 81 % 0.00 in 192 W/m2
14:56 68.9 °F 62.8 °F 30.03 in WSW 10.0 mph 16.0 mph 81 % 0.00 in 237 W/m2
15:01 68.7 °F 63.0 °F 30.03 in WSW 10.0 mph 16.0 mph 82 % 0.00 in 381 W/m2
15:06 69.1 °F 63.4 °F 30.02 in WSW 9.0 mph 16.0 mph 82 % 0.00 in 424 W/m2
15:11 69.4 °F 63.4 °F 30.02 in WSW 9.0 mph 15.0 mph 81 % 0.00 in 780 W/m2
15:16 70.2 °F 64.1 °F 30.02 in WSW 9.0 mph 15.0 mph 81 % 0.00 in 413 W/m2
15:22 70.7 °F 64.2 °F 30.02 in WSW 10.0 mph 16.0 mph 80 % 0.00 in 376 W/m2
15:27 71.1 °F 63.9 °F 30.03 in WSW 10.0 mph 19.0 mph 78 % 0.00 in 399 W/m2
15:28 71.1 °F 64.2 °F 30.02 in WSW 11.0 mph 19.0 mph 79 % 0.00 in 461 W/m2
15:33 71.2 °F 64.4 °F 30.02 in WSW 10.0 mph 19.0 mph 79 % 0.00 in 392 W/m2
15:38 71.4 °F 64.6 °F 30.02 in West 8.0 mph 14.0 mph 79 % 0.00 in 353 W/m2
15:43 71.8 °F 64.5 °F 30.02 in WSW 9.0 mph 16.0 mph 78 % 0.00 in 364 W/m2
15:45 71.6 °F 64.4 °F 30.02 in WSW 9.0 mph 16.0 mph 78 % 0.00 in 378 W/m2
15:50 71.8 °F 64.5 °F 30.02 in WSW 10.0 mph 16.0 mph 78 % 0.00 in 281 W/m2
15:55 71.8 °F 64.5 °F 30.02 in WSW 10.0 mph 16.0 mph 78 % 0.00 in 390 W/m2
16:00 72.0 °F 64.7 °F 30.02 in WSW 10.0 mph 18.0 mph 78 % 0.00 in 364 W/m2
16:05 71.8 °F 64.2 °F 30.02 in WSW 11.0 mph 21.0 mph 77 % 0.00 in 341 W/m2
16:10 71.8 °F 64.9 °F 30.02 in WSW 10.0 mph 21.0 mph 79 % 0.00 in 295 W/m2
16:15 71.6 °F 64.4 °F 30.03 in WSW 10.0 mph 18.0 mph 78 % 0.00 in 232 W/m2
16:20 71.4 °F 64.6 °F 30.03 in WSW 10.0 mph 16.0 mph 79 % 0.00 in 220 W/m2
16:25 71.2 °F 64.4 °F 30.03 in WSW 9.0 mph 16.0 mph 79 % 0.00 in 225 W/m2
16:30 71.4 °F 64.9 °F 30.03 in WSW 8.0 mph 14.0 mph 80 % 0.00 in 206 W/m2
16:35 71.2 °F 64.4 °F 30.03 in WSW 9.0 mph 20.0 mph 79 % 0.00 in 250 W/m2
16:40 71.2 °F 64.4 °F 30.03 in WSW 10.0 mph 19.0 mph 79 % 0.00 in 269 W/m2
16:45 71.2 °F 64.4 °F 30.03 in West 8.0 mph 14.0 mph 79 % 0.00 in 248 W/m2
16:50 71.2 °F 64.4 °F 30.03 in WSW 9.0 mph 14.0 mph 79 % 0.00 in 207 W/m2
16:55 71.1 °F 64.2 °F 30.03 in WSW 10.0 mph 18.0 mph 79 % 0.00 in 104 W/m2
16:59 70.9 °F 64.0 °F 30.03 in WSW 10.0 mph 18.0 mph 79 % 0.00 in 121 W/m2
17:03 70.5 °F 63.7 °F 30.03 in WSW 12.0 mph 24.0 mph 79 % 0.00 in 123 W/m2
17:08 70.3 °F 63.9 °F 30.03 in WSW 12.0 mph 24.0 mph 80 % 0.00 in 144 W/m2
17:13 70.0 °F 63.5 °F 30.03 in WSW 12.0 mph 23.0 mph 80 % 0.00 in 163 W/m2
17:18 69.8 °F 63.7 °F 30.03 in West 12.0 mph 23.0 mph 81 % 0.00 in 169 W/m2
17:23 69.6 °F 63.5 °F 30.03 in West 11.0 mph 19.0 mph 81 % 0.00 in 213 W/m2
17:28 69.8 °F 63.7 °F 30.03 in West 10.0 mph 19.0 mph 81 % 0.00 in 200 W/m2
17:33 70.0 °F 63.9 °F 30.03 in West 9.0 mph 19.0 mph 81 % 0.00 in 171 W/m2
17:38 69.8 °F 63.7 °F 30.02 in WSW 10.0 mph 19.0 mph 81 % 0.00 in 137 W/m2
17:43 69.6 °F 63.5 °F 30.03 in WSW 9.0 mph 19.0 mph 81 % 0.00 in 102 W/m2
17:48 69.4 °F 63.4 °F 30.03 in WSW 10.0 mph 19.0 mph 81 % 0.00 in 95 W/m2
17:53 69.3 °F 63.2 °F 30.03 in WSW 11.0 mph 19.0 mph 81 % 0.00 in 97 W/m2
17:58 69.1 °F 63.4 °F 30.03 in WSW 10.0 mph 19.0 mph 82 % 0.00 in 111 W/m2
18:03 69.1 °F 63.4 °F 30.03 in WSW 9.0 mph 16.0 mph 82 % 0.00 in 134 W/m2
18:08 69.1 °F 63.7 °F 30.03 in WSW 9.0 mph 16.0 mph 83 % 0.00 in 141 W/m2
18:13 68.9 °F 63.5 °F 30.03 in West 9.0 mph 15.0 mph 83 % 0.00 in 144 W/m2
18:18 68.9 °F 63.5 °F 30.03 in WSW 9.0 mph 15.0 mph 83 % 0.00 in 137 W/m2
18:19 68.7 °F 63.3 °F 30.03 in WSW 9.0 mph 15.0 mph 83 % 0.00 in 135 W/m2
18:24 68.7 °F 63.3 °F 30.03 in WSW 9.0 mph 15.0 mph 83 % 0.00 in 134 W/m2
18:29 68.5 °F 63.2 °F 30.02 in SW 9.0 mph 15.0 mph 83 % 0.00 in 141 W/m2
18:34 68.5 °F 63.5 °F 30.02 in SW 10.0 mph 15.0 mph 84 % 0.00 in 139 W/m2
18:39 68.5 °F 63.5 °F 30.02 in SW 10.0 mph 18.0 mph 84 % 0.00 in 128 W/m2
18:44 68.4 °F 63.3 °F 30.02 in SW 10.0 mph 18.0 mph 84 % 0.00 in 105 W/m2
18:49 68.4 °F 63.3 °F 30.02 in WSW 9.0 mph 15.0 mph 84 % 0.00 in 91 W/m2
18:54 68.4 °F 63.3 °F 30.02 in SW 9.0 mph 13.0 mph 84 % 0.00 in 100 W/m2
18:59 68.4 °F 63.3 °F 30.02 in SW 8.0 mph 12.0 mph 84 % 0.00 in 104 W/m2
19:04 68.4 °F 63.3 °F 30.02 in WSW 8.0 mph 12.0 mph 84 % 0.00 in 98 W/m2
19:09 68.5 °F 63.5 °F 30.02 in WSW 8.0 mph 12.0 mph 84 % 0.00 in 95 W/m2
19:15 68.5 °F 63.5 °F 30.02 in WSW 8.0 mph 12.0 mph 84 % 0.00 in 100 W/m2
19:20 68.5 °F 63.5 °F 30.01 in SW 8.0 mph 12.0 mph 84 % 0.00 in 97 W/m2
19:25 68.7 °F 63.7 °F 30.01 in SW 7.0 mph 14.0 mph 84 % 0.00 in 98 W/m2
19:30 68.7 °F 63.7 °F 30.01 in SW 8.0 mph 14.0 mph 84 % 0.00 in 98 W/m2
19:35 68.7 °F 63.7 °F 30.01 in WSW 8.0 mph 12.0 mph 84 % 0.00 in 176 W/m2
19:40 69.1 °F 63.7 °F 30.01 in WSW 7.0 mph 11.0 mph 83 % 0.00 in 167 W/m2
19:45 69.3 °F 63.9 °F 30.01 in WSW 7.0 mph 11.0 mph 83 % 0.00 in 144 W/m2
19:50 69.6 °F 63.9 °F 30.01 in WSW 7.0 mph 12.0 mph 82 % 0.00 in 141 W/m2
19:55 70.0 °F 64.2 °F 30.01 in WSW 7.0 mph 12.0 mph 82 % 0.00 in 160 W/m2
20:00 70.2 °F 64.1 °F 30.01 in WSW 7.0 mph 12.0 mph 81 % 0.00 in 134 W/m2
20:05 70.2 °F 63.7 °F 30.01 in WSW 8.0 mph 16.0 mph 80 % 0.00 in 93 W/m2
20:10 70.3 °F 63.9 °F 30.01 in WSW 9.0 mph 16.0 mph 80 % 0.00 in 74 W/m2
20:15 70.3 °F 63.9 °F 30.02 in WSW 10.0 mph 18.0 mph 80 % 0.00 in 67 W/m2
20:20 70.3 °F 63.9 °F 30.02 in WSW 11.0 mph 18.0 mph 80 % 0.00 in 63 W/m2
20:25 70.3 °F 63.9 °F 30.02 in WSW 9.0 mph 15.0 mph 80 % 0.00 in 54 W/m2
20:30 70.2 °F 63.7 °F 30.01 in WSW 9.0 mph 16.0 mph 80 % 0.00 in 46 W/m2
20:35 70.0 °F 63.5 °F 30.02 in WSW 10.0 mph 20.0 mph 80 % 0.00 in 40 W/m2
20:40 69.8 °F 63.3 °F 30.02 in WSW 11.0 mph 20.0 mph 80 % 0.00 in 42 W/m2
20:45 69.6 °F 63.2 °F 30.02 in WSW 11.0 mph 20.0 mph 80 % 0.00 in 37 W/m2
20:50 69.4 °F 63.0 °F 30.02 in WSW 11.0 mph 20.0 mph 80 % 0.00 in 35 W/m2
20:55 69.4 °F 63.0 °F 30.02 in WSW 9.0 mph 20.0 mph 80 % 0.00 in 33 W/m2
21:00 69.4 °F 63.0 °F 30.02 in WSW 7.0 mph 13.0 mph 80 % 0.00 in 25 W/m2
21:05 69.3 °F 62.8 °F 30.02 in SW 7.0 mph 13.0 mph 80 % 0.00 in 18 W/m2
21:10 69.1 °F 63.0 °F 30.02 in SW 7.0 mph 13.0 mph 81 % 0.00 in 12 W/m2
21:15 69.1 °F 63.0 °F 30.02 in SW 7.0 mph 15.0 mph 81 % 0.00 in 11 W/m2
21:20 68.9 °F 62.8 °F 30.03 in WSW 8.0 mph 15.0 mph 81 % 0.00 in 11 W/m2
21:25 68.9 °F 62.8 °F 30.03 in SW 7.0 mph 13.0 mph 81 % 0.00 in 9 W/m2
21:30 68.7 °F 62.7 °F 30.03 in SW 8.0 mph 13.0 mph 81 % 0.00 in 9 W/m2
21:35 68.5 °F 62.5 °F 30.03 in SW 7.0 mph 13.0 mph 81 % 0.00 in 9 W/m2
21:41 68.5 °F 62.5 °F 30.03 in SW 7.0 mph 13.0 mph 81 % 0.00 in 5 W/m2
21:46 68.4 °F 62.6 °F 30.03 in SW 7.0 mph 14.0 mph 82 % 0.00 in 0 W/m2
21:51 68.2 °F 62.5 °F 30.03 in SW 7.0 mph 14.0 mph 82 % 0.00 in 0 W/m2
21:56 68.0 °F 62.3 °F 30.02 in SW 6.0 mph 12.0 mph 82 % 0.00 in 0 W/m2
22:01 67.8 °F 62.1 °F 30.02 in SW 6.0 mph 9.0 mph 82 % 0.00 in 0 W/m2
22:06 67.6 °F 62.3 °F 30.03 in SW 6.0 mph 9.0 mph 83 % 0.00 in 0 W/m2
22:11 67.5 °F 62.1 °F 30.03 in SW 6.0 mph 9.0 mph 83 % 0.00 in 0 W/m2
22:16 67.3 °F 61.9 °F 30.03 in SW 5.0 mph 9.0 mph 83 % 0.00 in 0 W/m2
22:21 67.1 °F 62.1 °F 30.03 in SSW 3.0 mph 7.0 mph 84 % 0.00 in 0 W/m2
22:26 66.9 °F 61.9 °F 30.03 in SSW 3.0 mph 6.0 mph 84 % 0.00 in 0 W/m2
22:31 66.9 °F 62.3 °F 30.03 in SSW 3.0 mph 8.0 mph 85 % 0.00 in 0 W/m2
22:36 66.7 °F 62.1 °F 30.03 in SW 5.0 mph 11.0 mph 85 % 0.00 in 0 W/m2
22:41 66.7 °F 62.1 °F 30.02 in SW 5.0 mph 11.0 mph 85 % 0.00 in 0 W/m2
22:46 66.7 °F 62.1 °F 30.02 in SW 5.0 mph 12.0 mph 85 % 0.00 in 0 W/m2
22:51 66.7 °F 62.1 °F 30.03 in SW 6.0 mph 12.0 mph 85 % 0.00 in 0 W/m2
22:56 66.7 °F 62.1 °F 30.03 in SW 5.0 mph 12.0 mph 85 % 0.00 in 0 W/m2
23:01 66.7 °F 62.1 °F 30.02 in WSW 6.0 mph 11.0 mph 85 % 0.00 in 0 W/m2
23:06 66.7 °F 62.1 °F 30.02 in SW 7.0 mph 15.0 mph 85 % 0.00 in 0 W/m2
23:11 66.7 °F 62.1 °F 30.02 in SW 8.0 mph 15.0 mph 85 % 0.00 in 0 W/m2
23:16 66.7 °F 62.1 °F 30.02 in WSW 8.0 mph 15.0 mph 85 % 0.00 in 0 W/m2
23:21 66.7 °F 62.1 °F 30.02 in WSW 10.0 mph 15.0 mph 85 % 0.00 in 0 W/m2
23:26 66.7 °F 62.1 °F 30.02 in WSW 10.0 mph 21.0 mph 85 % 0.00 in 0 W/m2
23:31 66.9 °F 62.3 °F 30.03 in WSW 11.0 mph 21.0 mph 85 % 0.00 in 0 W/m2
23:32 66.9 °F 62.3 °F 30.03 in WSW 12.0 mph 22.0 mph 85 % 0.00 in 0 W/m2
23:37 66.9 °F 62.3 °F 30.03 in WSW 13.0 mph 24.0 mph 85 % 0.00 in 0 W/m2
23:42 67.1 °F 62.4 °F 30.03 in WSW 11.0 mph 24.0 mph 85 % 0.00 in 0 W/m2
23:47 66.9 °F 62.3 °F 30.03 in WSW 11.0 mph 22.0 mph 85 % 0.00 in 0 W/m2
23:52 66.9 °F 62.3 °F 30.03 in West 11.0 mph 22.0 mph 85 % 0.00 in 0 W/m2
23:57 66.9 °F 62.3 °F 30.03 in West 11.0 mph 22.0 mph 85 % 0.00 in 0 W/m2
Delerius-Weather
Compliments of Weather Underground - 2.25 mb

Data updates at regular intervals.